UAE8162 EBLG-EGLL

Flight info

Callsign UAE8162
Flight time 0h 52m
Altitude 26000
Route BUB L608 LOGAN
Aircraft B77L/H-SDE1E2E3FGHIJ2J3J4J5M1RWXY/LB1D1

Departure

Time 2026-04-21 18:38
Airport Liège Airport (EBLG)

Arrival

Time 2026-04-21 19:30
Airport London Heathrow Airport (EGLL)
Time Latitude Longitude Altitude Speed Heading
2026-04-21 17:58 50.64439 5.46048 620 ft 0 kts 135°
2026-04-21 18:29 50.64440 5.46046 620 ft 0 kts 135°
2026-04-21 18:29 50.64442 5.46044 620 ft 0 kts 135°
2026-04-21 18:29 50.64442 5.46043 620 ft 0 kts 135°
2026-04-21 18:31 50.64443 5.46041 620 ft 2 kts 135°
2026-04-21 18:31 50.64455 5.46023 634 ft 2 kts 135°
2026-04-21 18:32 50.64466 5.46005 627 ft 2 kts 135°
2026-04-21 18:32 50.64478 5.45987 634 ft 2 kts 149°
2026-04-21 18:32 50.64493 5.45978 634 ft 2 kts 184°
2026-04-21 18:32 50.64507 5.45985 634 ft 0 kts 218°
2026-04-21 18:33 50.64507 5.45984 634 ft 0 kts 218°
2026-04-21 18:34 50.64468 5.45931 634 ft 11 kts 225°
2026-04-21 18:34 50.64416 5.45848 634 ft 11 kts 225°
2026-04-21 18:34 50.64353 5.45748 631 ft 18 kts 225°
2026-04-21 18:34 50.64236 5.45562 631 ft 30 kts 225°
2026-04-21 18:35 50.64125 5.45387 633 ft 37 kts 225°
2026-04-21 18:35 50.63883 5.45006 627 ft 36 kts 225°
2026-04-21 18:35 50.63712 5.44737 630 ft 34 kts 225°
2026-04-21 18:35 50.63550 5.44483 635 ft 32 kts 225°
2026-04-21 18:36 50.63401 5.44249 645 ft 30 kts 225°
2026-04-21 18:36 50.63259 5.44020 649 ft 28 kts 225°
2026-04-21 18:36 50.63203 5.43879 649 ft 13 kts 282°
2026-04-21 18:36 50.63286 5.43842 645 ft 17 kts
2026-04-21 18:37 50.63420 5.43908 647 ft 28 kts 37°
2026-04-21 18:37 50.63682 5.44317 635 ft 88 kts 45°
2026-04-21 18:37 50.64282 5.45265 603 ft 154 kts 45°
2026-04-21 18:37 50.65115 5.46562 933 ft 172 kts 44°
2026-04-21 18:38 50.65974 5.47867 1744 ft 170 kts 45°
2026-04-21 18:38 50.66832 5.49110 2562 ft 166 kts 45°
2026-04-21 18:38 50.67685 5.50391 2913 ft 183 kts 48°
2026-04-21 18:38 50.68613 5.51949 3341 ft 203 kts 48°
2026-04-21 18:39 50.69595 5.53611 4084 ft 211 kts 48°
2026-04-21 18:39 50.70629 5.55300 4870 ft 216 kts 48°
2026-04-21 18:39 50.71737 5.56923 5623 ft 222 kts 33°
2026-04-21 18:39 50.73254 5.57507 6316 ft 234 kts 355°
2026-04-21 18:40 50.74781 5.56542 7094 ft 243 kts 323°
2026-04-21 18:40 50.75847 5.54441 7822 ft 251 kts 296°
2026-04-21 18:40 50.76255 5.52715 8274 ft 257 kts 288°
2026-04-21 18:40 50.76882 5.49055 9259 ft 263 kts 287°
2026-04-21 18:41 50.77349 5.46247 10041 ft 266 kts 287°
2026-04-21 18:41 50.77834 5.43398 10728 ft 270 kts 287°
2026-04-21 18:41 50.78278 5.40484 11323 ft 281 kts 285°
2026-04-21 18:41 50.78717 5.37359 11662 ft 301 kts 284°
2026-04-21 18:42 50.79175 5.34065 12171 ft 310 kts 284°
2026-04-21 18:42 50.79642 5.30711 12955 ft 314 kts 284°
2026-04-21 18:42 50.80116 5.27323 13791 ft 317 kts 284°
2026-04-21 18:42 50.80600 5.23895 14564 ft 320 kts 285°
2026-04-21 18:43 50.81089 5.20436 15294 ft 324 kts 285°
2026-04-21 18:43 50.81583 5.16940 16035 ft 327 kts 285°
2026-04-21 18:43 50.82079 5.13416 16768 ft 330 kts 285°
2026-04-21 18:43 50.82577 5.09846 17487 ft 334 kts 285°
2026-04-21 18:44 50.83076 5.06242 18201 ft 339 kts 285°
2026-04-21 18:44 50.83595 5.02493 18506 ft 356 kts 285°
2026-04-21 18:44 50.84135 4.98584 18847 ft 372 kts 284°
2026-04-21 18:44 50.84702 4.94467 18979 ft 393 kts 284°
2026-04-21 18:45 50.85294 4.90152 19267 ft 408 kts 284°
2026-04-21 18:45 50.85900 4.85708 19795 ft 416 kts 284°
2026-04-21 18:45 50.86502 4.81271 20427 ft 421 kts 284°
2026-04-21 18:45 50.87125 4.76666 21197 ft 423 kts 284°
2026-04-21 18:46 50.87735 4.72157 21788 ft 428 kts 284°
2026-04-21 18:46 50.88366 4.67488 22196 ft 439 kts 284°
2026-04-21 18:46 50.89008 4.62727 22702 ft 446 kts 284°
2026-04-21 18:46 50.89655 4.57901 23340 ft 449 kts 284°
2026-04-21 18:47 50.90426 4.53107 23994 ft 449 kts 292°
2026-04-21 18:47 50.91866 4.48766 24496 ft 445 kts 304°
2026-04-21 18:47 50.93535 4.44610 24975 ft 449 kts 305°
2026-04-21 18:47 50.95225 4.40433 25539 ft 451 kts 304°
2026-04-21 18:48 50.96910 4.36217 26101 ft 453 kts 304°
2026-04-21 18:48 50.98580 4.31968 26270 ft 453 kts 304°
2026-04-21 18:48 51.00228 4.27709 26269 ft 452 kts 303°
2026-04-21 18:48 51.01884 4.23386 26264 ft 453 kts 303°
2026-04-21 18:49 51.03493 4.19162 26265 ft 453 kts 303°
2026-04-21 18:49 51.05121 4.14877 26265 ft 453 kts 303°
2026-04-21 18:49 51.06222 4.11977 26266 ft 453 kts 303°
2026-04-21 18:49 51.08376 4.06291 26265 ft 453 kts 303°
2026-04-21 18:50 51.10001 4.01998 26266 ft 453 kts 303°
2026-04-21 18:50 51.11626 3.97700 26264 ft 453 kts 303°
2026-04-21 18:50 51.13264 3.93360 26264 ft 453 kts 303°
2026-04-21 18:50 51.14866 3.89108 26263 ft 453 kts 303°
2026-04-21 18:51 51.16486 3.84802 26262 ft 452 kts 303°
2026-04-21 18:51 51.18103 3.80496 26264 ft 452 kts 303°
2026-04-21 18:51 51.19717 3.76190 26263 ft 452 kts 303°
2026-04-21 18:51 51.21326 3.71893 26266 ft 452 kts 303°
2026-04-21 18:52 51.22936 3.67588 26269 ft 451 kts 303°
2026-04-21 18:52 51.24542 3.63280 26270 ft 451 kts 302°
2026-04-21 18:52 51.26141 3.58970 26269 ft 451 kts 302°
2026-04-21 18:52 51.27739 3.54653 26273 ft 451 kts 302°
2026-04-21 18:53 51.29334 3.50338 26273 ft 451 kts 302°
2026-04-21 18:53 51.30929 3.46017 26272 ft 451 kts 302°
2026-04-21 18:53 51.32523 3.41695 26288 ft 451 kts 302°
2026-04-21 18:53 51.34104 3.37364 26268 ft 451 kts 301°
2026-04-21 18:54 51.35500 3.32865 26267 ft 453 kts 295°
2026-04-21 18:54 51.36629 3.28162 26282 ft 453 kts 292°
2026-04-21 18:54 51.37713 3.23426 26266 ft 453 kts 292°
2026-04-21 18:54 51.38806 3.18702 26282 ft 453 kts 292°
2026-04-21 18:55 51.39543 3.15567 26275 ft 453 kts 293°
2026-04-21 18:55 51.41036 3.09270 26281 ft 452 kts 293°
2026-04-21 18:55 51.42147 3.04562 26278 ft 452 kts 293°
2026-04-21 18:55 51.43254 2.99850 26279 ft 451 kts 293°
2026-04-21 18:56 51.44356 2.95136 26283 ft 451 kts 293°
2026-04-21 18:56 51.45454 2.90432 26279 ft 450 kts 293°
2026-04-21 18:56 51.46548 2.85736 26279 ft 450 kts 293°
2026-04-21 18:56 51.47639 2.81045 26282 ft 449 kts 293°
2026-04-21 18:57 51.48727 2.76355 26285 ft 448 kts 293°
2026-04-21 18:57 51.49814 2.71662 26287 ft 448 kts 293°
2026-04-21 18:57 51.50897 2.66975 26284 ft 447 kts 293°
2026-04-21 18:57 51.51978 2.62288 26287 ft 447 kts 293°
2026-04-21 18:58 51.53054 2.57614 26292 ft 446 kts 292°
2026-04-21 18:58 51.54128 2.52937 26294 ft 446 kts 292°
2026-04-21 18:58 51.55196 2.48273 26296 ft 445 kts 292°
2026-04-21 18:58 51.56260 2.43598 26296 ft 445 kts 292°
2026-04-21 18:59 51.57316 2.38938 26296 ft 444 kts 292°
2026-04-21 18:59 51.58372 2.34269 26300 ft 444 kts 292°
2026-04-21 18:59 51.59432 2.29605 26301 ft 444 kts 292°
2026-04-21 18:59 51.60496 2.24935 26301 ft 444 kts 292°
2026-04-21 19:00 51.61557 2.20273 26303 ft 444 kts 292°
2026-04-21 19:00 51.62615 2.15610 26294 ft 444 kts 292°
2026-04-21 19:00 51.63673 2.10931 26304 ft 444 kts 292°
2026-04-21 19:00 51.64725 2.06271 26308 ft 443 kts 292°
2026-04-21 19:01 51.65777 2.01607 26310 ft 443 kts 292°
2026-04-21 19:01 51.66825 1.96954 26229 ft 439 kts 292°
2026-04-21 19:01 51.67857 1.92358 26062 ft 431 kts 292°
2026-04-21 19:01 51.68851 1.87918 25921 ft 423 kts 292°
2026-04-21 19:02 51.69845 1.83476 25671 ft 419 kts 292°
2026-04-21 19:02 51.70828 1.79077 25385 ft 415 kts 292°
2026-04-21 19:02 51.71792 1.74754 25346 ft 406 kts 292°
2026-04-21 19:02 51.72751 1.70446 25332 ft 411 kts 292°
2026-04-21 19:03 51.73730 1.66051 25335 ft 422 kts 292°
2026-04-21 19:03 51.74599 1.61496 25297 ft 429 kts 283°
2026-04-21 19:03 51.74672 1.56682 25019 ft 428 kts 266°
2026-04-21 19:03 51.74303 1.51898 24350 ft 431 kts 265°
2026-04-21 19:04 51.73940 1.47109 23845 ft 428 kts 265°
2026-04-21 19:04 51.73598 1.42351 23255 ft 425 kts 265°
2026-04-21 19:04 51.73276 1.37695 22775 ft 420 kts 266°
2026-04-21 19:04 51.72956 1.32965 22257 ft 417 kts 266°
2026-04-21 19:05 51.72649 1.28352 21863 ft 411 kts 266°
2026-04-21 19:05 51.72349 1.23857 21464 ft 406 kts 266°
2026-04-21 19:05 51.72048 1.19361 21196 ft 397 kts 265°
2026-04-21 19:05 51.71754 1.15004 21281 ft 388 kts 266°
2026-04-21 19:06 51.71457 1.10588 21339 ft 403 kts 266°
2026-04-21 19:06 51.71153 1.06108 21200 ft 404 kts 266°
2026-04-21 19:06 51.70843 1.01606 20887 ft 400 kts 266°
2026-04-21 19:06 51.70536 0.97187 20549 ft 394 kts 265°
2026-04-21 19:07 51.70234 0.92833 20269 ft 387 kts 265°
2026-04-21 19:07 51.69935 0.88545 19767 ft 386 kts 266°
2026-04-21 19:07 51.69637 0.84255 19404 ft 382 kts 265°
2026-04-21 19:07 51.69341 0.80013 18984 ft 380 kts 265°
2026-04-21 19:08 51.69051 0.75881 18765 ft 372 kts 265°
2026-04-21 19:08 51.68760 0.71781 18460 ft 364 kts 265°
2026-04-21 19:08 51.68476 0.67812 18075 ft 348 kts 265°
2026-04-21 19:08 51.68206 0.64041 17695 ft 332 kts 265°
2026-04-21 19:09 51.67941 0.60346 16874 ft 332 kts 265°
2026-04-21 19:09 51.67676 0.56637 16124 ft 331 kts 264°
2026-04-21 19:09 51.67502 0.54247 16026 ft 319 kts 264°
2026-04-21 19:09 51.67160 0.49543 15794 ft 324 kts 264°
2026-04-21 19:10 51.66982 0.47100 15674 ft 326 kts 264°
2026-04-21 19:10 51.66716 0.43477 15492 ft 325 kts 264°
2026-04-21 19:10 51.66366 0.38747 15326 ft 315 kts 264°
2026-04-21 19:10 51.66191 0.36402 15319 ft 307 kts 264°
2026-04-21 19:11 51.65939 0.33000 15335 ft 306 kts 264°
2026-04-21 19:11 51.65681 0.29518 15343 ft 322 kts 264°
2026-04-21 19:11 51.65411 0.25885 15335 ft 328 kts 264°
2026-04-21 19:11 51.65142 0.22291 15249 ft 327 kts 264°
2026-04-21 19:12 51.64870 0.18706 15046 ft 309 kts 264°
2026-04-21 19:12 51.64617 0.15386 14571 ft 297 kts 264°
2026-04-21 19:12 51.64375 0.12212 14131 ft 285 kts 264°
2026-04-21 19:12 51.63966 0.09101 13286 ft 285 kts 248°
2026-04-21 19:13 51.63159 0.06271 12644 ft 279 kts 242°
2026-04-21 19:13 51.62255 0.03467 11833 ft 281 kts 241°
2026-04-21 19:13 51.61367 0.00735 11161 ft 277 kts 241°
2026-04-21 19:13 51.60485 -0.01991 10541 ft 272 kts 240°
2026-04-21 19:14 51.59624 -0.04681 10113 ft 270 kts 240°
2026-04-21 19:14 51.58841 -0.07353 9677 ft 268 kts 253°
2026-04-21 19:14 51.58630 -0.10366 9378 ft 270 kts 270°
2026-04-21 19:14 51.58644 -0.13428 9372 ft 275 kts 270°
2026-04-21 19:15 51.58663 -0.16499 9418 ft 274 kts 271°
2026-04-21 19:15 51.58685 -0.19538 9329 ft 271 kts 271°
2026-04-21 19:15 51.58708 -0.22599 8926 ft 277 kts 271°
2026-04-21 19:15 51.58734 -0.25715 8424 ft 277 kts 271°
2026-04-21 19:16 51.58758 -0.28756 8279 ft 267 kts 271°
2026-04-21 19:16 51.58782 -0.31752 8309 ft 269 kts 271°
2026-04-21 19:16 51.58806 -0.34760 8290 ft 269 kts 271°
2026-04-21 19:16 51.58831 -0.37751 8285 ft 266 kts 271°
2026-04-21 19:17 51.58878 -0.43692 8292 ft 266 kts 271°
2026-04-21 19:17 51.58901 -0.46666 8304 ft 266 kts 271°
2026-04-21 19:17 51.58924 -0.49650 8307 ft 267 kts 271°
2026-04-21 19:18 51.58947 -0.52644 8297 ft 269 kts 271°
2026-04-21 19:18 51.58969 -0.55646 8288 ft 268 kts 271°
2026-04-21 19:18 51.58991 -0.58642 8073 ft 268 kts 271°
2026-04-21 19:18 51.59013 -0.61626 7745 ft 265 kts 271°
2026-04-21 19:19 51.59034 -0.64575 7366 ft 264 kts 271°
2026-04-21 19:19 51.59054 -0.67521 6974 ft 263 kts 270°
2026-04-21 19:19 51.59076 -0.70463 6579 ft 263 kts 270°
2026-04-21 19:19 51.59062 -0.73387 6154 ft 258 kts 261°
2026-04-21 19:20 51.58678 -0.76156 5785 ft 248 kts 252°
2026-04-21 19:20 51.58189 -0.78755 5414 ft 237 kts 251°
2026-04-21 19:20 51.57755 -0.80984 5144 ft 225 kts 251°
2026-04-21 19:20 51.57301 -0.83328 4755 ft 215 kts 251°
2026-04-21 19:21 51.56857 -0.85604 4307 ft 212 kts 251°
2026-04-21 19:21 51.56412 -0.87864 4023 ft 215 kts 251°
2026-04-21 19:21 51.55775 -0.90003 3980 ft 210 kts 223°
2026-04-21 19:21 51.54588 -0.91155 4013 ft 195 kts 187°
2026-04-21 19:22 51.53268 -0.91543 4008 ft 193 kts 181°
2026-04-21 19:22 51.51940 -0.91847 4004 ft 192 kts 181°
2026-04-21 19:22 51.50619 -0.92146 3995 ft 190 kts 178°
2026-04-21 19:22 51.49397 -0.91812 3990 ft 172 kts 140°
2026-04-21 19:23 51.48598 -0.90436 4014 ft 171 kts 121°
2026-04-21 19:23 51.47950 -0.88847 3982 ft 167 kts 108°
2026-04-21 19:23 51.47778 -0.87082 4013 ft 157 kts 94°
2026-04-21 19:23 51.47697 -0.85354 3987 ft 153 kts 92°
2026-04-21 19:24 51.47659 -0.83659 4009 ft 153 kts 91°
2026-04-21 19:24 51.47644 -0.81937 4009 ft 156 kts 90°
2026-04-21 19:24 51.47641 -0.80210 4016 ft 158 kts 90°
2026-04-21 19:24 51.47642 -0.78424 3807 ft 159 kts 89°
2026-04-21 19:25 51.47647 -0.76693 3602 ft 152 kts 89°
2026-04-21 19:25 51.47653 -0.75020 3396 ft 149 kts 88°
2026-04-21 19:25 51.47659 -0.73401 3226 ft 144 kts 88°
2026-04-21 19:25 51.47665 -0.71793 3025 ft 144 kts 88°
2026-04-21 19:26 51.47670 -0.70222 2824 ft 137 kts 88°
2026-04-21 19:26 51.47675 -0.68719 2632 ft 131 kts 88°
2026-04-21 19:26 51.47681 -0.67258 2462 ft 131 kts 88°
2026-04-21 19:26 51.47683 -0.65809 2286 ft 132 kts 87°
2026-04-21 19:27 51.47697 -0.64306 2044 ft 133 kts 86°
2026-04-21 19:27 51.47710 -0.62855 1806 ft 129 kts 86°
2026-04-21 19:27 51.47729 -0.61410 1628 ft 131 kts 86°
2026-04-21 19:27 51.47738 -0.59934 1451 ft 132 kts 87°
2026-04-21 19:28 51.47746 -0.58457 1269 ft 133 kts 87°
2026-04-21 19:28 51.47739 -0.56974 1105 ft 134 kts 88°
2026-04-21 19:28 51.47730 -0.55469 935 ft 136 kts 87°
2026-04-21 19:28 51.47745 -0.53942 723 ft 139 kts 85°
2026-04-21 19:29 51.47764 -0.52400 610 ft 136 kts 88°
2026-04-21 19:29 51.47744 -0.50877 390 ft 139 kts 88°
2026-04-21 19:29 51.47747 -0.49354 198 ft 136 kts 89°
2026-04-21 19:29 51.47747 -0.47844 98 ft 128 kts 87°
2026-04-21 19:30 51.47758 -0.46593 97 ft 93 kts 90°
2026-04-21 19:30 51.47761 -0.45821 91 ft 45 kts 90°
2026-04-21 19:30 51.47735 -0.45498 94 ft 20 kts 136°
2026-04-21 19:30 51.47648 -0.45469 91 ft 1 kts 180°
2026-04-21 19:31 51.47638 -0.45469 91 ft 1 kts 180°
2026-04-21 19:31 51.47628 -0.45469 91 ft 1 kts 180°
2026-04-21 19:31 51.47618 -0.45469 91 ft 1 kts 180°
2026-04-21 19:31 51.47608 -0.45469 91 ft 2 kts 180°
2026-04-21 19:32 51.47596 -0.45469 91 ft 2 kts 180°
2026-04-21 19:32 51.47582 -0.45469 91 ft 2 kts 180°
2026-04-21 19:32 51.47561 -0.45469 91 ft 4 kts 180°
2026-04-21 19:32 51.47536 -0.45470 91 ft 4 kts 184°
2026-04-21 19:33 51.47520 -0.45482 96 ft 4 kts 216°
2026-04-21 19:33 51.47510 -0.45537 93 ft 4 kts 262°
2026-04-21 19:33 51.47506 -0.45584 94 ft 4 kts 263°
2026-04-21 19:33 51.47503 -0.45632 94 ft 4 kts 268°
2026-04-21 19:34 51.47504 -0.45684 94 ft 6 kts 275°
2026-04-21 19:34 51.47511 -0.45796 95 ft 12 kts 276°
2026-04-21 19:34 51.47517 -0.45932 91 ft 12 kts 269°
2026-04-21 19:34 51.47516 -0.46069 91 ft 12 kts 269°
2026-04-21 19:35 51.47515 -0.46205 91 ft 12 kts 269°
2026-04-21 19:35 51.47513 -0.46476 94 ft 12 kts 269°
2026-04-21 19:35 51.47512 -0.46614 94 ft 12 kts 269°
2026-04-21 19:36 51.47505 -0.46749 95 ft 12 kts 255°
2026-04-21 19:36 51.47475 -0.46872 95 ft 12 kts 221°
2026-04-21 19:36 51.47392 -0.46876 94 ft 12 kts 171°
2026-04-21 19:36 51.47307 -0.46866 91 ft 12 kts 177°
2026-04-21 19:37 51.47222 -0.46867 92 ft 12 kts 181°
2026-04-21 19:37 51.47136 -0.46868 91 ft 12 kts 180°
2026-04-21 19:37 51.47050 -0.46867 91 ft 12 kts 179°
2026-04-21 19:37 51.46973 -0.46864 91 ft 10 kts 179°
2026-04-21 19:38 51.46902 -0.46862 93 ft 10 kts 179°
2026-04-21 19:38 51.46830 -0.46860 93 ft 10 kts 179°
2026-04-21 19:38 51.46783 -0.46860 92 ft 10 kts 180°
2026-04-21 19:38 51.46689 -0.46855 93 ft 10 kts 161°
2026-04-21 19:39 51.46661 -0.46756 95 ft 10 kts 96°
2026-04-21 19:39 51.46658 -0.46642 95 ft 10 kts 90°
2026-04-21 19:39 51.46659 -0.46527 95 ft 10 kts 88°
2026-04-21 19:39 51.46661 -0.46412 95 ft 10 kts 90°
2026-04-21 19:40 51.46661 -0.46298 93 ft 10 kts 90°
2026-04-21 19:40 51.46661 -0.46184 91 ft 10 kts 90°
2026-04-21 19:40 51.46661 -0.46070 91 ft 10 kts 90°
2026-04-21 19:40 51.46656 -0.45991 94 ft 6 kts 109°
2026-04-21 19:41 51.46628 -0.45938 96 ft 6 kts 141°
2026-04-21 19:41 51.46591 -0.45892 93 ft 7 kts 142°
2026-04-21 19:41 51.46549 -0.45842 93 ft 8 kts 146°
2026-04-21 19:41 51.46497 -0.45787 92 ft 11 kts 147°
2026-04-21 19:42 51.46433 -0.45719 94 ft 11 kts 147°
2026-04-21 19:42 51.46368 -0.45657 95 ft 11 kts 161°
2026-04-21 19:42 51.46325 -0.45736 95 ft 11 kts 264°
2026-04-21 19:42 51.46323 -0.45861 92 ft 11 kts 269°
2026-04-21 19:43 51.46304 -0.45955 94 ft 7 kts 205°
2026-04-21 19:43 51.46254 -0.45963 93 ft 7 kts 180°
2026-04-21 19:43 51.46224 -0.45963 93 ft 2 kts 179°
2026-04-21 19:43 51.46218 -0.45962 93 ft 0 kts 179°